Regional Weather Roundup
Issued by NWS

Home | Current Version | Previous Version | Text Only | Print | Product List | Glossary Off
Versions: 1 2 3 4 5 6 7 8 9 10 11 12 13 14 15 16 17 18 19 20 21 22 23 24 25 26 27 28 29 30 31 32 33 34 35 36 37 38 39 40 41 42 43 44 45 46 47 48 49 50

000
ASUS43 KDMX 021407
RWRIA

WEATHER ROUNDUP FOR IOWA
NATIONAL WEATHER SERVICE DES MOINES IA
900 AM CDT SUN AUG 02 2015

NOTE: "FAIR" INDICATES FEW OR NO CLOUDS BELOW 12,000 FEET WITH NO
SIGNIFICANT WEATHER AND/OR OBSTRUCTIONS TO VISIBILITY.

* - THESE STATIONS ARE NOT NWS STATIONS...THUS NOT UNDER NWS
QUALITY CONTROL.  THEY ALSO DO NOT REPORT WEATHER SUCH
AS PRECIPITATION OR FOG.

IAZ001>003-012>014-020>022-031>034-043>046-021500-
   NORTHWEST IOWA

CITY           SKY/WX    TMP DP  RH WIND       PRES   REMARKS
CARROLL *      SUNNY     77  72  83 SW15G23   29.81S
CHEROKEE *     SUNNY     75  70  83 SW7       29.80F
DENISON *      SUNNY     77  72  83 SW13      29.81S
LE MARS *      SUNNY     73  70  88 SW8       29.81R
ORANGE CITY *  SUNNY     72  68  88 SW8       29.81R
SHELDON *      SUNNY     75  70  83 SW8G15    29.78S
SIOUX CITY     SUNNY     75  67  76 SW8       29.81S
SPENCER        SUNNY     77  67  71 SW13      29.79R
STORM LAKE *   SUNNY     75  68  78 SW15      29.82R
$$

IAZ055>058-069>071-079>083-090>094-021500-
   SOUTHWEST IOWA

CITY           SKY/WX    TMP DP  RH WIND       PRES   REMARKS
ATLANTIC *     SUNNY     75  72  88 SW13G18   29.85S
AUDUBON *      SUNNY     77  72  83 SW9G16    29.84S
CLARINDA *     PTSUNNY   77  72  83 SW7       29.91R
COUNCIL BLFS * SUNNY     77  72  83 SW10      29.87R
CRESTON *      SUNNY     75  70  83 SW15      29.89S
HARLAN  *      SUNNY     75  75 100 SW12      29.87S
LAMONI         PTSUNNY   75  68  78 SW14      29.87F
RED OAK *      MOSUNNY   73  72  94 S8        29.87F
SHENANDOAH *   LGT RAIN  73  72  94 SW9G16    29.89S
$$

IAZ047>049-059>061-072>074-084-021500-
   CENTRAL IOWA

CITY           SKY/WX    TMP DP  RH WIND       PRES   REMARKS
AMES           MOSUNNY   76  69  79 SW6       29.80S
ANKENY *       SUNNY     77  68  73 SW12      29.81R
CHARITON *     SUNNY     77  68  73 SW12G21   29.85R
DES MOINES     CLOUDY    76  66  71 SW13      29.81F
GRINNELL*      MOSUNNY   75  66  73 SW13      29.82F
KNOXVILLE *    SUNNY     75  66  73 S7        29.83R
MARSHALLTOWN   SUNNY     76  67  73 SW10      29.79S
PELLA *        CLOUDY    77  70  78 S10       29.84F
PERRY *          N/A     81  72  74 SW13G20   29.81S HX  84
$$

IAZ004>006-015-016-023>025-035-036-021500-
   NORTH CENTRAL IOWA

CITY           SKY/WX    TMP DP  RH WIND       PRES   REMARKS
ALGONA *       SUNNY     75  70  83 SW14      29.78F
CLARION *      SUNNY     75  70  83 SW10      29.79F
ESTHERVILLE    SUNNY     75  68  78 SW12G23   29.76S
FORT DODGE *   SUNNY     75  68  78 SW10      29.81S
MASON CITY     SUNNY     76  68  76 W18       29.79S
FOREST CITY *  SUNNY     73  68  83 SW10      29.78S
IOWA FALLS *     N/A     75  66  73 W13G18    29.81S
$$

IAZ007>011-017>019-026>030-037>042-050>054-066-021500-
   NORTHEAST IOWA

CITY           SKY/WX    TMP DP  RH WIND       PRES   REMARKS
CEDAR RAPIDS   MOSUNNY   73  68  84 S12       29.82S
CHARLES CITY * SUNNY     75  70  83 W12G21    29.78F
CLINTON *      SUNNY     75  64  69 SW12G17   29.87S
DECORAH *      SUNNY     75  66  73 SW8G18    29.76S
DUBUQUE        PTSUNNY   73  66  78 SW17G23   29.82S
MONTICELLO *   SUNNY     75  68  78 SW9G16    29.82S
OELWEIN *      SUNNY     75  68  78 SW10      29.81R
WATERLOO       SUNNY     77  67  71 SW12      29.78R
$$

IAZ064-065-067-068-078-021500-
   EAST CENTRAL IOWA

CITY           SKY/WX    TMP DP  RH WIND       PRES   REMARKS
DAVENPORT      SUNNY     77  64  64 SW12      29.85F
IOWA CITY      PTSUNNY   74  64  71 MISG      29.85F
MT. PLEASANT * PTSUNNY   77  63  61 SW13      29.88S
MUSCATINE *    PTSUNNY   75  64  69 S5        29.86R
QUAD CITIES    MOSUNNY   79  64  60 SW12      29.85F HX  81
$$

IAZ062-063-075>077-085>089-095>099-021500-
   SOUTHEAST IOWA

CITY           SKY/WX    TMP DP  RH WIND       PRES   REMARKS
BURLINGTON     PTSUNNY   75  67  76 SW10      29.88F
FAIRFIELD *    MOSUNNY   72  64  78 SW9       29.87R
FORT MADISON * SUNNY     73  64  73 S9        29.89F
KEOKUK *       MOSUNNY   75  64  69 S13G18    29.88F
OSKALOOSA *      N/A     70  66  88 CALM      29.85F
CENTERVILLE *  SUNNY     72  66  83 SW8       29.89F
OTTUMWA        LGT RAIN  69  65  86 S8        29.84S
WASHINGTON *   MOSUNNY   72  66  83 SW8       29.87S
$$

ABBREVIATIONS USED IN REMARKS
   TC - TEMPERATURES IN CELSIUS
  WCI - WIND CHILL INDEX
   HX - HEAT INDEX
  VSB - VISIBILITY
$$



USA.gov is the U.S. government's official web portal to all federal, state and local government web resources and services.